When you browse on this site, cookies collect data to enhance your experience and personalize the content and advertising you see.
Visit our Privacy Policy to learn more. By continuing to use the site, you agree to this use of cookies and data.
  • en France
  • Liste des pays
  • À 7 jours
  • Température de l'eau
  • Carte satellitaire
  • Carte météo
  • Widgets météo
  • user-avatar
    Se connecter

    Météo par heure à Darwin

    Ce jour, 12 Décembre, Mercredi

    Heure Température Précipitation Vent Pression Humidité
    00:00 +32°C° 0.2 mm 5 m/s 754 mmHg 81%
    01:00 +32°C° 0 mm 5 m/s 754 mmHg 81%
    02:00 +32°C° 0 mm 5 m/s 754 mmHg 82%
    03:00 +32°C° 0 mm 5 m/s 753 mmHg 82%
    04:00 +32°C° 0 mm 5 m/s 753 mmHg 82%
    05:00 +32°C° 0 mm 5 m/s 753 mmHg 83%
    06:00 +32°C° 0 mm 5 m/s 754 mmHg 83%
    07:00 +33°C° 0 mm 5 m/s 754 mmHg 78%
    08:00 +34°C° 0 mm 5 m/s 754 mmHg 74%
    09:00 +35°C° 0 mm 6 m/s 755 mmHg 69%
    10:00 +36°C° 0 mm 6 m/s 754 mmHg 65%
    11:00 +38°C° 0 mm 6 m/s 754 mmHg 60%
    12:00 +39°C° 0 mm 6 m/s 754 mmHg 56%
    13:00 +39°C° 0 mm 6 m/s 753 mmHg 56%
    14:00 +39°C° 0 mm 6 m/s 753 mmHg 57%
    15:00 +39°C° 0 mm 7 m/s 753 mmHg 57%
    16:00 +36°C° 0 mm 6 m/s 753 mmHg 63%
    17:00 +35°C° 0 mm 6 m/s 753 mmHg 68%
    18:00 +34°C° 0 mm 6 m/s 753 mmHg 74%
    19:00 +34°C° 0 mm 6 m/s 753 mmHg 76%
    20:00 +33°C° 0 mm 6 m/s 753 mmHg 78%
    21:00 +33°C° 0 mm 6 m/s 753 mmHg 80%
    22:00 +33°C° 0 mm 6 m/s 753 mmHg 81%
    23:00 +33°C° 0 mm 6 m/s 753 mmHg 81%

    Demain, 13 Décembre, Jeudi

    Heure Température Précipitation Vent Pression Humidité
    00:00 +33°C° 0 mm 6 m/s 754 mmHg 81%
    01:00 +33°C° 0 mm 7 m/s 753 mmHg 81%
    02:00 +33°C° 0 mm 7 m/s 753 mmHg 80%
    03:00 +33°C° 0 mm 7 m/s 753 mmHg 80%
    04:00 +33°C° 0 mm 7 m/s 753 mmHg 81%
    05:00 +33°C° 0 mm 6 m/s 753 mmHg 81%
    06:00 +33°C° 0 mm 6 m/s 753 mmHg 81%
    07:00 +34°C° 0 mm 7 m/s 754 mmHg 77%
    08:00 +34°C° 0 mm 7 m/s 754 mmHg 73%
    09:00 +35°C° 0 mm 7 m/s 754 mmHg 70%
    10:00 +36°C° 0 mm 7 m/s 754 mmHg 66%
    11:00 +38°C° 0 mm 7 m/s 753 mmHg 63%
    12:00 +39°C° 0 mm 8 m/s 753 mmHg 60%
    13:00 +38°C° 0 mm 8 m/s 753 mmHg 61%
    14:00 +38°C° 0 mm 8 m/s 753 mmHg 62%
    15:00 +38°C° 0 mm 8 m/s 752 mmHg 63%
    16:00 +37°C° 0 mm 8 m/s 752 mmHg 66%
    17:00 +35°C° 0 mm 8 m/s 752 mmHg 69%
    18:00 +35°C° 0 mm 8 m/s 752 mmHg 72%
    19:00 +34°C° 0 mm 8 m/s 752 mmHg 74%
    20:00 +34°C° 0 mm 7 m/s 753 mmHg 76%
    21:00 +33°C° 0 mm 7 m/s 753 mmHg 77%
    22:00 +33°C° 0.2 mm 7 m/s 753 mmHg 78%
    23:00 +33°C° 0.2 mm 7 m/s 754 mmHg 79%

    Après-demain, 14 Décembre, Vendredi

    Heure Température Précipitation Vent Pression Humidité
    00:00 +33°C° 0.2 mm 7 m/s 754 mmHg 80%
    01:00 +32°C° 7.1 mm 6 m/s 754 mmHg 83%
    02:00 +32°C° 7.1 mm 5 m/s 753 mmHg 87%
    03:00 +30°C° 7.1 mm 4 m/s 753 mmHg 90%
    04:00 +30°C° 4.8 mm 4 m/s 753 mmHg 89%
    05:00 +30°C° 4.8 mm 5 m/s 753 mmHg 88%
    06:00 +30°C° 4.8 mm 5 m/s 753 mmHg 87%
    07:00 +30°C° 5.3 mm 6 m/s 754 mmHg 87%
    08:00 +30°C° 5.3 mm 6 m/s 754 mmHg 87%
    09:00 +30°C° 5.3 mm 7 m/s 755 mmHg 88%
    10:00 +30°C° 0.4 mm 7 m/s 754 mmHg 84%
    11:00 +32°C° 0.4 mm 7 m/s 754 mmHg 80%
    12:00 +33°C° 0.4 mm 7 m/s 753 mmHg 77%
    13:00 +34°C° 0 mm 6 m/s 753 mmHg 73%
    14:00 +35°C° 0 mm 6 m/s 752 mmHg 69%
    15:00 +36°C° 0 mm 6 m/s 752 mmHg 66%
    16:00 +35°C° 0 mm 6 m/s 752 mmHg 70%
    17:00 +34°C° 0 mm 6 m/s 752 mmHg 74%
    18:00 +34°C° 0 mm 6 m/s 752 mmHg 78%
    19:00 +33°C° 0 mm 5 m/s 752 mmHg 79%
    20:00 +33°C° 0 mm 5 m/s 753 mmHg 81%
    21:00 +32°C° 0 mm 4 m/s 753 mmHg 83%
    22:00 +32°C° 0 mm 4 m/s 753 mmHg 84%
    23:00 +32°C° 0 mm 4 m/s 753 mmHg 84%

    15 Décembre, Samedi

    Heure Température Précipitation Vent Pression Humidité
    00:00 +32°C° 0 mm 4 m/s 753 mmHg 85%
    01:00 +32°C° 0.1 mm 4 m/s 753 mmHg 85%
    02:00 +32°C° 0.1 mm 4 m/s 752 mmHg 86%
    03:00 +32°C° 0.1 mm 4 m/s 752 mmHg 86%
    04:00 +30°C° 0.1 mm 4 m/s 752 mmHg 87%
    05:00 +30°C° 0.1 mm 4 m/s 753 mmHg 87%
    06:00 +30°C° 0.1 mm 4 m/s 753 mmHg 88%
    07:00 +32°C° 1.2 mm 4 m/s 753 mmHg 84%
    08:00 +33°C° 1.2 mm 4 m/s 754 mmHg 79%
    09:00 +34°C° 1.2 mm 5 m/s 754 mmHg 75%
    10:00 +35°C° 0.3 mm 5 m/s 754 mmHg 72%
    11:00 +36°C° 0.3 mm 5 m/s 753 mmHg 70%
    12:00 +36°C° 0.3 mm 5 m/s 753 mmHg 67%
    13:00 +36°C° 1 mm 5 m/s 753 mmHg 68%
    14:00 +36°C° 1 mm 5 m/s 752 mmHg 70%
    15:00 +36°C° 1 mm 5 m/s 752 mmHg 71%
    16:00 +35°C° 0.4 mm 5 m/s 752 mmHg 73%
    17:00 +34°C° 0.4 mm 4 m/s 752 mmHg 76%
    18:00 +34°C° 0.4 mm 4 m/s 752 mmHg 79%
    19:00 +33°C° 0.3 mm 4 m/s 753 mmHg 82%
    20:00 +33°C° 0.3 mm 3 m/s 753 mmHg 85%
    21:00 +31°C° 0.3 mm 3 m/s 754 mmHg 89%
    22:00 +31°C° 0.2 mm 3 m/s 754 mmHg 89%
    23:00 +31°C° 0.2 mm 3 m/s 754 mmHg 90%

    16 Décembre, Dimanche

    Heure Température Précipitation Vent Pression Humidité
    00:00 +31°C° 0.2 mm 3 m/s 754 mmHg 90%
    01:00 +30°C° 0.1 mm 3 m/s 754 mmHg 91%
    02:00 +30°C° 0.1 mm 4 m/s 753 mmHg 91%
    03:00 +30°C° 0.1 mm 4 m/s 753 mmHg 92%
    04:00 +30°C° 0 mm 4 m/s 753 mmHg 92%
    05:00 +30°C° 0 mm 4 m/s 753 mmHg 92%
    06:00 +30°C° 0 mm 4 m/s 754 mmHg 92%
    07:00 +32°C° 0.5 mm 4 m/s 754 mmHg 87%
    08:00 +33°C° 0.5 mm 4 m/s 755 mmHg 82%
    09:00 +34°C° 0.5 mm 4 m/s 755 mmHg 77%
    10:00 +35°C° 0.9 mm 4 m/s 755 mmHg 73%
    11:00 +36°C° 0.9 mm 4 m/s 754 mmHg 68%
    12:00 +37°C° 0.9 mm 3 m/s 754 mmHg 64%
    13:00 +37°C° 0.4 mm 4 m/s 754 mmHg 63%
    14:00 +37°C° 0.4 mm 4 m/s 753 mmHg 63%
    15:00 +37°C° 0.4 mm 4 m/s 753 mmHg 63%
    16:00 +36°C° 0.1 mm 4 m/s 753 mmHg 67%
    17:00 +35°C° 0.1 mm 4 m/s 753 mmHg 71%
    18:00 +35°C° 0.1 mm 4 m/s 753 mmHg 75%
    19:00 +34°C° 0.5 mm 4 m/s 754 mmHg 80%
    20:00 +33°C° 0.5 mm 4 m/s 754 mmHg 84%
    21:00 +31°C° 0.5 mm 3 m/s 754 mmHg 89%
    22:00 +32°C° 0 mm 4 m/s 754 mmHg 89%
    23:00 +32°C° 0 mm 4 m/s 754 mmHg 90%

    17 Décembre, Lundi

    Heure Température Précipitation Vent Pression Humidité
    00:00 +32°C° 0 mm 4 m/s 754 mmHg 90%
    01:00 +32°C° 0.7 mm 4 m/s 754 mmHg 91%
    02:00 +30°C° 0.7 mm 3 m/s 753 mmHg 92%
    03:00 +30°C° 0.7 mm 3 m/s 753 mmHg 92%
    04:00 +30°C° 0.1 mm 3 m/s 754 mmHg 93%
    05:00 +30°C° 0.1 mm 3 m/s 754 mmHg 93%
    06:00 +30°C° 0.1 mm 3 m/s 754 mmHg 93%
    07:00 +31°C° 0 mm 3 m/s 755 mmHg 88%
    08:00 +34°C° 0 mm 3 m/s 755 mmHg 82%
    09:00 +35°C° 0 mm 3 m/s 755 mmHg 76%
    10:00 +36°C° 0 mm 3 m/s 755 mmHg 69%
    11:00 +38°C° 0 mm 3 m/s 755 mmHg 62%
    12:00 +39°C° 0 mm 3 m/s 754 mmHg 55%
    13:00 +39°C° 0.1 mm 3 m/s 754 mmHg 56%
    14:00 +38°C° 0.1 mm 4 m/s 753 mmHg 57%
    15:00 +38°C° 0.1 mm 4 m/s 753 mmHg 58%
    16:00 +37°C° 0.1 mm 4 m/s 753 mmHg 62%
    17:00 +36°C° 0.1 mm 4 m/s 753 mmHg 67%
    18:00 +35°C° 0.1 mm 4 m/s 753 mmHg 71%
    19:00 +34°C° 0.3 mm 3 m/s 754 mmHg 76%
    20:00 +33°C° 0.3 mm 3 m/s 754 mmHg 80%
    21:00 +31°C° 0.3 mm 3 m/s 755 mmHg 84%
    22:00 +31°C° 0.2 mm 3 m/s 755 mmHg 85%
    23:00 +31°C° 0.2 mm 3 m/s 755 mmHg 85%
    Voir plus